• In Belarus
  • List of Countries
  • For 7 days
  • Water Temperature
  • Satellite Maps
  • Weather Map
  • Weather Widgets
  • user-avatar
    Login

    Hourly Weather Gold Coast

    Today, 20 October, Friday

    Time Temperature Precipitation Wind Pressure Humidity
    00:00 +18°C° 0 mm 3 mps 763 mmHg 91%
    01:00 +17°C° 0 mm 2 mps 763 mmHg 92%
    02:00 +17°C° 0 mm 2 mps 763 mmHg 92%
    03:00 +17°C° 0 mm 2 mps 762 mmHg 92%
    04:00 +17°C° 0 mm 3 mps 762 mmHg 92%
    05:00 +18°C° 0 mm 2 mps 762 mmHg 87%
    06:00 +20°C° 0 mm 2 mps 762 mmHg 83%
    07:00 +21°C° 0 mm 2 mps 762 mmHg 78%
    08:00 +24°C° 0 mm 3 mps 762 mmHg 70%
    09:00 +25°C° 0 mm 3 mps 762 mmHg 63%
    10:00 +26°C° 0 mm 3 mps 761 mmHg 56%
    11:00 +27°C° 0 mm 3 mps 761 mmHg 55%
    12:00 +27°C° 0 mm 3 mps 761 mmHg 54%
    13:00 +28°C° 0 mm 3 mps 760 mmHg 53%
    14:00 +27°C° 0 mm 4 mps 760 mmHg 54%
    15:00 +27°C° 0 mm 4 mps 759 mmHg 56%
    16:00 +27°C° 0 mm 4 mps 758 mmHg 58%
    17:00 +25°C° 0 mm 4 mps 759 mmHg 65%
    18:00 +22°C° 0 mm 4 mps 759 mmHg 72%
    19:00 +20°C° 0 mm 4 mps 759 mmHg 79%
    20:00 +20°C° 0 mm 4 mps 759 mmHg 82%
    21:00 +20°C° 0 mm 4 mps 759 mmHg 84%
    22:00 +19°C° 0 mm 4 mps 759 mmHg 87%
    23:00 +19°C° 0 mm 3 mps 759 mmHg 87%

    Tomorrow, 21 October, Saturday

    Time Temperature Precipitation Wind Pressure Humidity
    00:00 +19°C° 0 mm 3 mps 758 mmHg 88%
    01:00 +19°C° 0 mm 3 mps 758 mmHg 89%
    02:00 +19°C° 0 mm 3 mps 757 mmHg 90%
    03:00 +18°C° 0 mm 2 mps 757 mmHg 90%
    04:00 +18°C° 0 mm 2 mps 757 mmHg 91%
    05:00 +18°C° 1 mm 2 mps 757 mmHg 92%
    06:00 +18°C° 1 mm 2 mps 757 mmHg 93%
    07:00 +19°C° 1 mm 3 mps 758 mmHg 94%
    08:00 +19°C° 2.1 mm 3 mps 758 mmHg 94%
    09:00 +18°C° 2.1 mm 4 mps 758 mmHg 94%
    10:00 +18°C° 2.1 mm 4 mps 757 mmHg 94%
    11:00 +17°C° 1.3 mm 5 mps 757 mmHg 92%
    12:00 +17°C° 1.3 mm 6 mps 757 mmHg 91%
    13:00 +17°C° 1.3 mm 7 mps 756 mmHg 90%
    14:00 +17°C° 1.4 mm 7 mps 756 mmHg 90%
    15:00 +16°C° 1.4 mm 8 mps 756 mmHg 91%
    16:00 +16°C° 1.4 mm 8 mps 755 mmHg 92%
    17:00 +16°C° 2.2 mm 8 mps 756 mmHg 92%
    18:00 +16°C° 2.2 mm 7 mps 756 mmHg 92%
    19:00 +15°C° 2.2 mm 7 mps 756 mmHg 93%
    20:00 +15°C° 0.7 mm 7 mps 756 mmHg 92%
    21:00 +15°C° 0.7 mm 7 mps 756 mmHg 91%
    22:00 +15°C° 0.7 mm 7 mps 756 mmHg 90%
    23:00 +15°C° 0.1 mm 7 mps 756 mmHg 89%

    Day after tomorrow, 22 October, Sunday

    Time Temperature Precipitation Wind Pressure Humidity
    00:00 +15°C° 0.1 mm 7 mps 755 mmHg 88%
    01:00 +15°C° 0.1 mm 6 mps 755 mmHg 87%
    02:00 +14°C° 0 mm 6 mps 755 mmHg 88%
    03:00 +14°C° 0 mm 6 mps 755 mmHg 89%
    04:00 +13°C° 0 mm 6 mps 754 mmHg 89%
    05:00 +14°C° 0 mm 6 mps 755 mmHg 86%
    06:00 +15°C° 0 mm 6 mps 755 mmHg 83%
    07:00 +16°C° 0 mm 6 mps 755 mmHg 80%
    08:00 +17°C° 0 mm 6 mps 755 mmHg 73%
    09:00 +20°C° 0 mm 6 mps 755 mmHg 65%
    10:00 +22°C° 0 mm 5 mps 755 mmHg 57%
    11:00 +23°C° 0 mm 5 mps 755 mmHg 55%
    12:00 +23°C° 0 mm 5 mps 754 mmHg 53%
    13:00 +25°C° 0 mm 5 mps 754 mmHg 51%
    14:00 +23°C° 0 mm 5 mps 754 mmHg 54%
    15:00 +23°C° 0 mm 5 mps 753 mmHg 57%
    16:00 +23°C° 0 mm 5 mps 753 mmHg 60%
    17:00 +21°C° 0 mm 4 mps 754 mmHg 68%
    18:00 +19°C° 0 mm 4 mps 754 mmHg 75%
    19:00 +17°C° 0 mm 4 mps 755 mmHg 83%
    20:00 +17°C° 0 mm 3 mps 755 mmHg 85%
    21:00 +17°C° 0 mm 3 mps 756 mmHg 86%
    22:00 +16°C° 0 mm 2 mps 756 mmHg 88%
    23:00 +16°C° 0.1 mm 2 mps 756 mmHg 90%

    23 October, Monday

    Time Temperature Precipitation Wind Pressure Humidity
    00:00 +15°C° 0.1 mm 2 mps 756 mmHg 91%
    01:00 +15°C° 0.1 mm 2 mps 755 mmHg 93%
    02:00 +15°C° 0.3 mm 2 mps 755 mmHg 93%
    03:00 +15°C° 0.3 mm 2 mps 755 mmHg 93%
    04:00 +14°C° 0.3 mm 2 mps 755 mmHg 93%
    05:00 +16°C° 0.1 mm 2 mps 756 mmHg 88%
    06:00 +17°C° 0.1 mm 2 mps 756 mmHg 83%
    07:00 +20°C° 0.1 mm 1 mps 757 mmHg 78%
    08:00 +22°C° 0 mm 1 mps 757 mmHg 68%
    09:00 +25°C° 0 mm 1 mps 757 mmHg 58%
    10:00 +27°C° 0 mm 1 mps 757 mmHg 47%
    11:00 +27°C° 0.2 mm 2 mps 757 mmHg 50%
    12:00 +26°C° 0.2 mm 2 mps 756 mmHg 53%
    13:00 +26°C° 0.2 mm 2 mps 756 mmHg 56%
    14:00 +25°C° 0.9 mm 2 mps 756 mmHg 62%
    15:00 +24°C° 0.9 mm 3 mps 756 mmHg 69%
    16:00 +22°C° 0.9 mm 3 mps 756 mmHg 75%
    17:00 +20°C° 0.1 mm 2 mps 757 mmHg 79%
    18:00 +19°C° 0.1 mm 2 mps 758 mmHg 83%
    19:00 +18°C° 0.1 mm 2 mps 758 mmHg 86%
    20:00 +17°C° 0 mm 2 mps 759 mmHg 87%
    21:00 +17°C° 0 mm 2 mps 759 mmHg 88%
    22:00 +17°C° 0 mm 2 mps 760 mmHg 90%
    23:00 +16°C° 0 mm 2 mps 760 mmHg 90%

    24 October, Tuesday

    Time Temperature Precipitation Wind Pressure Humidity
    00:00 +16°C° 0 mm 2 mps 760 mmHg 91%
    01:00 +16°C° 0 mm 2 mps 760 mmHg 92%
    02:00 +16°C° 0 mm 2 mps 760 mmHg 92%
    03:00 +15°C° 0 mm 2 mps 760 mmHg 92%
    04:00 +15°C° 0 mm 2 mps 760 mmHg 92%
    05:00 +17°C° 0 mm 2 mps 760 mmHg 87%
    06:00 +19°C° 0 mm 1 mps 761 mmHg 82%
    07:00 +21°C° 0 mm 1 mps 761 mmHg 77%
    08:00 +23°C° 0 mm 1 mps 761 mmHg 69%
    09:00 +25°C° 0 mm 1 mps 761 mmHg 61%
    10:00 +27°C° 0 mm 1 mps 761 mmHg 52%
    11:00 +27°C° 0 mm 2 mps 760 mmHg 51%
    12:00 +28°C° 0 mm 2 mps 760 mmHg 49%
    13:00 +28°C° 0 mm 3 mps 759 mmHg 48%
    14:00 +28°C° 0 mm 3 mps 759 mmHg 51%
    15:00 +27°C° 0 mm 4 mps 759 mmHg 54%
    16:00 +27°C° 0 mm 4 mps 759 mmHg 57%
    17:00 +25°C° 0 mm 4 mps 759 mmHg 65%
    18:00 +22°C° 0 mm 4 mps 760 mmHg 72%
    19:00 +20°C° 0 mm 4 mps 760 mmHg 80%
    20:00 +20°C° 0 mm 4 mps 760 mmHg 82%
    21:00 +19°C° 0 mm 4 mps 760 mmHg 84%
    22:00 +19°C° 0 mm 4 mps 761 mmHg 86%
    23:00 +19°C° 0 mm 4 mps 760 mmHg 87%

    25 October, Wednesday

    Time Temperature Precipitation Wind Pressure Humidity
    00:00 +18°C° 0 mm 4 mps 760 mmHg 88%
    01:00 +18°C° 0 mm 4 mps 760 mmHg 89%
    02:00 +18°C° 0 mm 4 mps 760 mmHg 90%
    03:00 +18°C° 0 mm 4 mps 760 mmHg 90%
    04:00 +17°C° 0 mm 4 mps 760 mmHg 91%
    05:00 +18°C° 0 mm 4 mps 760 mmHg 87%
    06:00 +20°C° 0 mm 4 mps 760 mmHg 82%
    07:00 +21°C° 0 mm 4 mps 761 mmHg 78%
    08:00 +23°C° 0 mm 5 mps 760 mmHg 69%
    09:00 +26°C° 0 mm 5 mps 760 mmHg 61%
    10:00 +29°C° 0 mm 5 mps 760 mmHg 53%
    11:00 +30°C° 0 mm 5 mps 759 mmHg 49%
    12:00 +32°C° 0 mm 5 mps 758 mmHg 45%
    13:00 +33°C° 0 mm 5 mps 757 mmHg 41%
    14:00 +32°C° 0 mm 5 mps 757 mmHg 45%
    15:00 +30°C° 0 mm 6 mps 757 mmHg 49%
    16:00 +30°C° 0 mm 6 mps 756 mmHg 53%
    17:00 +28°C° 0.2 mm 6 mps 757 mmHg 63%
    18:00 +26°C° 0.2 mm 5 mps 757 mmHg 73%
    19:00 +23°C° 0.2 mm 5 mps 758 mmHg 82%
    20:00 +22°C° 1.3 mm 5 mps 758 mmHg 84%
    21:00 +22°C° 1.3 mm 5 mps 758 mmHg 86%
    22:00 +21°C° 1.3 mm 5 mps 758 mmHg 88%
    23:00 +21°C° 0.1 mm 6 mps 758 mmHg 88%
    Show more